User: anonymous   Login
Location: Unspecified
(0.0000°N, 0.0000°E)
Time: 20:53:07
(UTC+00:00)
Language:

COSMOS 2496 - Orbit

View from above orbital plane
View from above orbital plane
View from above satellite
View from above satellite

Ground track
Ground track

The orbit data is extracted from the following two-line orbital elements,

1 39761U 14028A   21020.39060721  .00000056  00000-0  33169-3 0  9990
2 39761  82.4454 265.0665 0020407  58.8256 301.4822 12.42880304302380
Epoch (UTC): 20 January 2021 09:22:28
Eccentricity: 0.0020407
inclination: 82.4454°
perigee height: 1478 km
apogee height: 1510 km
right ascension of ascending node: 265.0665°
argument of perigee: 58.8256°
revolutions per day: 12.42880304
mean anomaly at epoch: 301.4822°
orbit number at epoch: 30238

The dashed part of the orbit path shows where the satellite is in the earth's shadow,  

DLR